Location: 22
(39.7117°N, 89.5929°W)
Time: 09:00:07
(UTC-05:00)

Transit 2A - Pass Details

Date: 04 August 2024
Orbit: 590 x 961 km, 66.7° (Epoch: 13 September)

Event Time Altitude Azimuth Distance (km) Brightness Sun altitude
Rises 15:55:05 0° 317° (NW) 3,650 9.7 46.6°
Reaches altitude 10° 15:58:13 10° 304° (WNW) 2,695 9.3 46.1°
Maximum altitude 16:02:56 23° 255° (WSW) 1,911 9.6 45.2°
Drops below altitude 10° 16:07:31 10° 207° (SSW) 2,595 9.3 44.4°
Sets 16:10:29 0° 192° (SSW) 3,481 9.7 43.8°
